West Palm Beach, FL

5:54 AM EST on December 06, 2019 (GMT -0500)
Palm Beach International

Weather History for KPBI - October, 2019

Change the Weather History Date:

Friday, October 4, 2019

  Actual Average Record
Temperature  
Mean Temperature 81 °F 80 °F  
Max Temperature 89 °F 87 °F 92 °F (1988)
Min Temperature 73 °F 74 °F 57 °F (1929)
Degree Days  
Heating Degree Days 0 0  
Month to date heating degree days 0 0  
Since 1 July heating degree days 0 0  
Cooling Degree Days 16 15  
Month to date cooling degree days 71 62  
Year to date cooling degree days 3780 3270  
Growing Degree Days 31 (Base 50)    
Moisture  
Dew Point 72 °F    
Average Humidity 73    
Maximum Humidity 87    
Minimum Humidity 59    
Precipitation  
Precipitation 0.00 in 0.20 in 2.88 in (1982)
Month to date precipitation T 0.82  
Year to date precipitation 45.35 49.89  
Snow  
Snow 0.00 in - - ()
Month to date snowfall 0.0  
Since 1 July snowfall 0.0  
Since 1 September snowfall 0.0  
Snow Depth 0.00 in    
Sea Level Pressure  
Sea Level Pressure 29.97 in    
Wind  
Wind Speed 9 mph (ENE)    
Max Wind Speed 15 mph    
Max Gust Speed 20 mph    
Visibility 10 miles    
Events      
T = Trace of Precipitation, MM = Missing Value Source: NWS Daily Summary

Daily Weather History Graph

Daily Weather History Graph

Search for Another Location

Airport or City:

Astronomy

Oct. 04, 2019 Rise Set
Actual Time 7:14 AM EDT 7:03 PM EDT
Civil Twilight 6:51 AM EDT 7:26 PM EDT
Nautical Twilight 6:24 AM EDT 7:53 PM EDT
Astronomical Twilight 5:57 AM EDT 8:20 PM EDT
Moon 1:15 PM EDT (10/4) No Moon Set
Length of Visible Light 12h 35m
Length of Day
11h 49m
Waxing Crescent, 39% of the Moon is Illuminated
Oct 4
Waxing Crescent
Oct 5
First Quarter
Oct 13
Full
Oct 21
Last Quarter
Oct 27
New

Hourly Weather History & Observations

Time (EDT) Temp. Heat Index Dew Point Humidity Pressure Visibility Wind Dir Wind Speed Gust Speed Precip Events Conditions
12:53 AM 79.0 °F - 69.1 °F 72% 29.99 in 10.0 mi East 8.1 mph - N/A   Clear
1:53 AM 79.0 °F - 70.0 °F 74% 29.98 in 10.0 mi East 5.8 mph - N/A   Partly Cloudy
2:53 AM 79.0 °F - 70.0 °F 74% 29.98 in 10.0 mi East 4.6 mph - N/A   Partly Cloudy
3:53 AM 78.1 °F - 71.1 °F 79% 29.96 in 10.0 mi East 5.8 mph - N/A   Scattered Clouds
4:53 AM 79.0 °F - 71.1 °F 77% 29.95 in 10.0 mi East 4.6 mph - N/A   Partly Cloudy
5:53 AM 73.0 °F - 69.1 °F 87% 29.96 in 10.0 mi NNW 3.5 mph - N/A   Partly Cloudy
6:53 AM 73.0 °F - 69.1 °F 87% 29.97 in 10.0 mi NNW 3.5 mph - N/A   Scattered Clouds
7:53 AM 75.9 °F - 72.0 °F 87% 29.99 in 10.0 mi NNW 3.5 mph - N/A   Scattered Clouds
8:53 AM 82.0 °F 86.3 °F 71.1 °F 69% 30.00 in 10.0 mi ENE 8.1 mph - N/A   Scattered Clouds
9:53 AM 84.0 °F 89.6 °F 72.0 °F 67% 30.01 in 10.0 mi East 10.4 mph - N/A   Scattered Clouds
10:53 AM 84.9 °F 90.7 °F 72.0 °F 65% 30.00 in 10.0 mi East 11.5 mph - N/A   Scattered Clouds
11:53 AM 86.0 °F 92.2 °F 72.0 °F 63% 30.00 in 10.0 mi ENE 9.2 mph - N/A   Scattered Clouds
12:53 PM 86.0 °F 93.0 °F 73.0 °F 65% 29.99 in 10.0 mi East 10.4 mph - N/A   Scattered Clouds
1:53 PM 88.0 °F 95.6 °F 73.0 °F 61% 29.97 in 10.0 mi East 11.5 mph - N/A   Scattered Clouds
2:53 PM 88.0 °F 94.7 °F 72.0 °F 59% 29.96 in 10.0 mi ESE 10.4 mph - N/A   Scattered Clouds
3:53 PM 87.1 °F 93.6 °F 72.0 °F 61% 29.94 in 10.0 mi East 11.5 mph - N/A   Scattered Clouds
4:53 PM 84.9 °F 90.7 °F 72.0 °F 65% 29.93 in 10.0 mi East 10.4 mph - N/A   Scattered Clouds
5:53 PM 84.0 °F 90.2 °F 73.0 °F 69% 29.93 in 10.0 mi East 15.0 mph - N/A   Scattered Clouds
6:53 PM 82.9 °F 88.8 °F 73.0 °F 72% 29.94 in 10.0 mi East 11.5 mph - N/A   Scattered Clouds
7:53 PM 82.0 °F 86.7 °F 72.0 °F 71% 29.95 in 10.0 mi East 10.4 mph - N/A   Partly Cloudy
8:53 PM 82.0 °F 86.7 °F 72.0 °F 71% 29.96 in 10.0 mi ENE 9.2 mph - N/A   Partly Cloudy
9:53 PM 82.0 °F 86.7 °F 72.0 °F 71% 29.97 in 10.0 mi ENE 9.2 mph - N/A   Partly Cloudy
10:53 PM 81.0 °F 85.2 °F 72.0 °F 74% 29.97 in 10.0 mi ENE 10.4 mph - N/A   Partly Cloudy
11:53 PM 81.0 °F 85.8 °F 73.0 °F 77% 29.98 in 10.0 mi ENE 10.4 mph - N/A   Partly Cloudy